Change the Weather History Date:

Saturday, February 15, 2014

  Actual Average (KRWF) Record (KRWF)
Temperature  
Mean Temperature 12 °F -  
Max Temperature 23 °F 24 °F 52 °F (1981)
Min Temperature 1 °F 8 °F -21 °F (1936)
Degree Days  
Heating Degree Days 53    
Moisture  
Dew Point 10 °F    
Average Humidity 83    
Maximum Humidity 86    
Minimum Humidity 73    
Precipitation  
Precipitation 0.00 in - - ()
Sea Level Pressure  
Sea Level Pressure 29.86 in    
Wind  
Wind Speed 10 mph (SE)    
Max Wind Speed 23 mph    
Max Gust Speed 31 mph    
Visibility 8 miles    
Events Snow    
Averages and records for this station are not official NWS values.
T = Trace of Precipitation, MM = Missing Value Source: NWS Daily Summary

Daily Weather History Graph

Daily Weather History Graph

Search for Another Location

Airport or City:

Trip Planner

Search our weather history database for the weather conditions in past years. The results will help you decide how hot, cold, wet, or windy it might be!

Date:

Astronomy

Feb. 15, 2014 Rise Set
Actual Time 7:20 AM CST 5:48 PM CST
Civil Twilight 6:50 AM CST 6:18 PM CST
Nautical Twilight 6:16 AM CST 6:52 PM CST
Astronomical Twilight 5:42 AM CST 7:26 PM CST
Moon 6:54 PM CST (2/15) 7:16 AM CST (2/15)
Length of Visible Light 11h 28m
Length of Day
10h 28m
Waxing Gibbous, 99% of the Moon is Illuminated
Feb 15
Waxing Gibbous
Feb 22
Last Quarter
Mar 1
New
Mar 8
First Quarter
Mar 16
Full

Hourly Weather History & Observations

Time (CST) Temp. Windchill Dew Point Humidity Pressure Visibility Wind Dir Wind Speed Gust Speed Precip Events Conditions
12:13 AM 3.2 °F -7.8 °F -0.4 °F 85% 29.97 in 10.0 mi SE 5.8 mph - N/A   Clear
12:33 AM 1.4 °F -8.3 °F -2.2 °F 85% 29.97 in 10.0 mi SSE 4.6 mph - N/A   Clear
12:53 AM 3.2 °F -7.8 °F -0.4 °F 85% 29.96 in 10.0 mi SSE 5.8 mph - N/A   Clear
1:13 AM 3.2 °F -6.2 °F -0.4 °F 85% 29.96 in 10.0 mi SE 4.6 mph - N/A   Clear
1:33 AM 3.2 °F -7.8 °F -0.4 °F 85% 29.94 in 10.0 mi SSE 5.8 mph - N/A   Clear
1:53 AM 3.2 °F -7.8 °F -0.4 °F 85% 29.94 in 10.0 mi SSE 5.8 mph - N/A   Clear
2:13 AM 3.2 °F -7.8 °F -0.4 °F 85% 29.94 in 10.0 mi South 5.8 mph - N/A   Clear
2:33 AM 3.2 °F -9.1 °F -0.4 °F 85% 29.93 in 10.0 mi SSE 6.9 mph - N/A   Clear
2:53 AM 5.0 °F -6.9 °F -0.4 °F 78% 29.93 in 10.0 mi SSE 6.9 mph - N/A   Clear
3:13 AM 5.0 °F -6.9 °F 1.4 °F 85% 29.91 in 10.0 mi SSE 6.9 mph - N/A   Clear
3:33 AM 5.0 °F -10.0 °F 1.4 °F 85% 29.89 in 10.0 mi SE 10.4 mph - N/A   Clear
3:53 AM 6.8 °F -6.9 °F 3.2 °F 85% 29.88 in 10.0 mi SE 9.2 mph - N/A   Clear
4:13 AM 8.6 °F -4.7 °F 3.2 °F 79% 29.87 in 10.0 mi SSE 9.2 mph - N/A   Clear
4:33 AM 8.6 °F -3.7 °F 3.2 °F 79% 29.87 in 10.0 mi SSE 8.1 mph - N/A   Clear
4:54 AM 10.4 °F -4.1 °F 5.0 °F 79% 29.85 in 10.0 mi SSE 11.5 mph - N/A   Clear
5:13 AM 10.4 °F -4.1 °F 5.0 °F 79% 29.84 in 10.0 mi SSE 11.5 mph - N/A   Clear
5:33 AM 10.4 °F -5.4 °F 5.0 °F 79% 29.82 in 10.0 mi SSE 13.8 mph - N/A   Clear
5:53 AM 10.4 °F -5.4 °F 5.0 °F 79% 29.81 in 10.0 mi SSE 13.8 mph - N/A   Clear
6:13 AM 10.4 °F -4.8 °F 5.0 °F 79% 29.79 in 10.0 mi SSE 12.7 mph - N/A   Clear
6:33 AM 10.4 °F -4.1 °F 3.2 °F 73% 29.79 in 10.0 mi SSE 11.5 mph - N/A   Clear
6:53 AM 10.4 °F -5.4 °F 3.2 °F 73% 29.78 in 10.0 mi SSE 13.8 mph - N/A   Clear
7:13 AM 12.2 °F -1.8 °F 5.0 °F 73% 29.77 in 10.0 mi SSE 11.5 mph - N/A   Clear
7:33 AM 12.2 °F -1.8 °F 6.8 °F 79% 29.77 in 10.0 mi SSE 11.5 mph 17.3 mph N/A   Clear
7:53 AM 12.2 °F -3.1 °F 6.8 °F 79% 29.76 in 10.0 mi SE 13.8 mph - N/A   Clear
8:13 AM 14.0 °F -0.8 °F 6.8 °F 73% 29.75 in 10.0 mi SSE 13.8 mph - N/A   Clear
8:33 AM 15.8 °F 1.4 °F 8.6 °F 73% 29.77 in 10.0 mi SSE 13.8 mph - N/A   Scattered Clouds
8:53 AM 15.8 °F 2.7 °F 10.4 °F 79% 29.76 in 0.5 mi SSE 11.5 mph - N/A Snow Snow
9:13 AM 15.8 °F 0.3 °F 10.4 °F 79% 29.74 in 0.5 mi SSE 16.1 mph - N/A Snow Snow
9:33 AM 15.8 °F 2.1 °F 12.2 °F 86% 29.73 in 0.8 mi SSE 12.7 mph - N/A Snow Light Snow
9:53 AM 15.8 °F 2.1 °F 12.2 °F 86% 29.73 in 1.0 mi SSE 12.7 mph - N/A Snow Light Snow
10:13 AM 17.6 °F 5.7 °F 12.2 °F 79% 29.73 in 2.0 mi SSE 10.4 mph - N/A Snow Light Snow
10:33 AM 17.6 °F 3.7 °F 14.0 °F 86% 29.72 in 1.0 mi SSE 13.8 mph 17.3 mph N/A Snow Light Snow
10:53 AM 17.6 °F 3.2 °F 14.0 °F 86% 29.72 in 4.0 mi SSE 15.0 mph - N/A Snow Light Snow
11:13 AM 19.4 °F 5.5 °F 14.0 °F 80% 29.71 in 7.0 mi SSE 15.0 mph - N/A   Clear
11:33 AM 21.2 °F 8.3 °F 17.6 °F 86% 29.71 in 7.0 mi SSE 13.8 mph - N/A   Scattered Clouds
11:53 AM 21.2 °F 8.9 °F 15.8 °F 80% 29.70 in 5.0 mi SSE 12.7 mph - N/A   Haze
12:13 PM 21.2 °F 8.3 °F 15.8 °F 80% 29.70 in 7.0 mi SSE 13.8 mph - N/A   Scattered Clouds
12:33 PM 21.2 °F 8.9 °F 17.6 °F 86% 29.69 in 5.0 mi SE 12.7 mph - N/A   Scattered Clouds
12:53 PM 21.2 °F 8.9 °F 17.6 °F 86% 29.68 in 5.0 mi SE 12.7 mph - N/A   Mostly Cloudy
1:13 PM 21.2 °F 10.9 °F 17.6 °F 86% 29.68 in 7.0 mi SE 9.2 mph - N/A   Mostly Cloudy
1:33 PM 23.0 °F 14.7 °F 19.4 °F 86% 29.69 in 10.0 mi SE 6.9 mph - N/A   Mostly Cloudy
1:53 PM 23.0 °F 18.4 °F 19.4 °F 86% 29.70 in 10.0 mi ESE 3.5 mph - N/A   Mostly Cloudy
2:13 PM 23.0 °F 18.4 °F 19.4 °F 86% 29.71 in 10.0 mi ESE 3.5 mph - N/A   Scattered Clouds
2:33 PM 23.0 °F 18.4 °F 19.4 °F 86% 29.73 in 10.0 mi NNE 3.5 mph - N/A   Scattered Clouds
2:53 PM 23.0 °F 13.9 °F 19.4 °F 86% 29.74 in 7.0 mi NNE 8.1 mph - N/A   Scattered Clouds
3:13 PM 23.0 °F 13.9 °F 19.4 °F 86% 29.76 in 10.0 mi NNE 8.1 mph - N/A   Scattered Clouds
3:33 PM 23.0 °F 12.4 °F 19.4 °F 86% 29.78 in 10.0 mi North 10.4 mph - N/A   Scattered Clouds
3:53 PM 23.0 °F 11.7 °F 19.4 °F 86% 29.80 in 10.0 mi North 11.5 mph - N/A   Scattered Clouds
4:13 PM 23.0 °F 12.4 °F 19.4 °F 86% 29.81 in 10.0 mi North 10.4 mph - N/A   Mostly Cloudy
4:33 PM 21.2 °F 10.9 °F 17.6 °F 86% 29.83 in 10.0 mi North 9.2 mph - N/A   Scattered Clouds
4:53 PM 21.2 °F 10.9 °F 17.6 °F 86% 29.85 in 10.0 mi North 9.2 mph - N/A   Mostly Cloudy
5:13 PM 21.2 °F 12.6 °F 17.6 °F 86% 29.87 in 10.0 mi North 6.9 mph - N/A   Mostly Cloudy
5:33 PM 21.2 °F 13.6 °F 17.6 °F 86% 29.89 in 10.0 mi North 5.8 mph - N/A   Overcast
5:53 PM 21.2 °F 12.6 °F 17.6 °F 86% 29.90 in 10.0 mi North 6.9 mph - N/A   Overcast
6:14 PM 21.2 °F 13.6 °F 17.6 °F 86% 29.92 in 10.0 mi NNW 5.8 mph - N/A   Overcast
6:33 PM 23.0 °F 9.6 °F 19.4 °F 86% 29.94 in 10.0 mi NW 16.1 mph - N/A   Overcast
6:53 PM 21.2 °F 7.3 °F 17.6 °F 86% 29.95 in 10.0 mi NW 16.1 mph - N/A   Overcast
7:13 PM 21.2 °F 6.4 °F 17.6 °F 86% 29.97 in 7.0 mi NW 18.4 mph 25.3 mph N/A   Overcast
7:33 PM 19.4 °F 4.1 °F 14.0 °F 80% 29.99 in 7.0 mi WNW 18.4 mph 25.3 mph N/A   Overcast
7:53 PM 17.6 °F 2.7 °F 14.0 °F 86% 30.00 in 5.0 mi NW 16.1 mph 23.0 mph N/A   Overcast
8:13 PM 17.6 °F 2.7 °F 12.2 °F 79% 30.01 in 7.0 mi NW 16.1 mph 24.2 mph N/A   Mostly Cloudy
8:33 PM 15.8 °F -0.2 °F 12.2 °F 86% 30.01 in 7.0 mi NW 17.3 mph 27.6 mph N/A   Mostly Cloudy
8:53 PM 15.8 °F -0.2 °F 12.2 °F 86% 30.01 in 5.0 mi NW 17.3 mph 25.3 mph N/A   Mostly Cloudy
9:13 PM 15.8 °F -0.6 °F 12.2 °F 86% 30.03 in 5.0 mi NW 18.4 mph 26.5 mph N/A   Overcast
9:33 PM 15.8 °F -2.3 °F 10.4 °F 79% 30.04 in 4.0 mi NW 23.0 mph 31.1 mph N/A   Haze
9:53 PM 15.8 °F -1.9 °F 10.4 °F 79% 30.06 in 4.0 mi NW 21.9 mph 27.6 mph N/A   Haze
10:13 PM 12.2 °F -5.3 °F 8.6 °F 85% 30.07 in 2.5 mi NW 18.4 mph 29.9 mph N/A Snow Light Snow
10:33 PM 12.2 °F -5.8 °F 8.6 °F 85% 30.08 in 2.5 mi NW 19.6 mph 31.1 mph N/A   Overcast
10:53 PM 12.2 °F -5.8 °F 8.6 °F 85% 30.07 in 3.0 mi NW 19.6 mph 25.3 mph N/A   Mist
11:13 PM 12.2 °F -5.3 °F 8.6 °F 85% 30.04 in 7.0 mi NNW 18.4 mph 23.0 mph N/A   Scattered Clouds
11:33 PM 12.2 °F -3.7 °F 8.6 °F 85% 30.05 in 7.0 mi NNW 15.0 mph - N/A   Overcast
11:53 PM 12.2 °F -3.7 °F 6.8 °F 79% 30.05 in 10.0 mi NNW 15.0 mph 21.9 mph N/A   Mostly Cloudy